Location: Ch�tillon
(48.8024°N, 2.2935°E)
Time: 17:55:25
(UTC+00:00)

RS-15 - Pass Details

Date: 02 July 2022
Orbit: 1881 x 2163 km, 64.8° (Epoch: 11 August)

Event Time Altitude Azimuth Distance (km) Brightness Sun altitude
Rises 22:29:54 0° 318° (NW) 5,696 11.8 -15.7°
Reaches altitude 10° 22:33:23 10° 320° (NW) 4,693 11.1 -15.9°
Maximum altitude 22:45:52 83° 50° (NE) 2,160 8.2 -16.6°
Enters shadow 22:56:22 16° 138° (SE) 4,111 9.2 -17.0°
